Location: Gandikunta
(16.3784°N, 80.8378°E)
Time: 06:06:05
(UTC+00:00)

Cosmos 1844 Rocket - Pass Details

Date: 19 May 2025
Orbit: 822 x 845 km, 71.0° (Epoch: 18 June)

Event Time Altitude Azimuth Distance (km) Brightness Sun altitude
Exits shadow 23:32:16 10° 242° (WSW) 2,466 4.4 -8.1°
Reaches altitude 10° 23:32:25 10° 243° (WSW) 2,427 4.4 -8.0°
Maximum altitude 23:36:30 21° 291° (WNW) 1,791 4.0 -7.1°
Drops below altitude 10° 23:40:37 10° 339° (NNW) 2,441 5.1 -6.2°
Sets 23:43:41 0° 355° (N) 3,380 6.1 -5.6°
